Location: Meanaryar
(48.4161°N, 4.7315°W)
Time: 17:16:58
(UTC+00:00)

Meteor 1-24 Rocket - Pass Details

Date: 18 September 2020
Orbit: 790 x 927 km, 81.2° (Epoch: 30 October)

Event Time Altitude Azimuth Distance (km) Brightness Sun altitude
Rises 20:47:50 0° 349° (N) 3,345 7.4 -23.4°
Reaches altitude 10° 20:50:12 10° 351° (N) 2,425 6.6 -23.7°
Maximum altitude 20:55:42 76° 77° (ENE) 869 3.6 -24.5°
Enters shadow 20:56:31 64° 138° (SE) 935 3.6 -24.6°
